Home > Weather > Plzen > Past weeks

Flag for Czech Republic Past Weather in Plzen, Czech Republic — Yesterday and Last 2 Weeks

Now
66 °F

Scattered clouds.


Feels Like: 66 °F
Forecast: 56 / 76 °F
Wind: 1 mph from East

Location: Kocelovice

Current Time: Jun 28, 2016 at 10:37:02 PM

Latest Report: Jun 28, 2016 at 9:00 PM


Visibility: 44 mi

Pressure: 29.98 "Hg

Humidity: 66%

Dew Point: 54 °F

Location of PlzenLocation

Past Weather in Plzen — Graph

°F

Plzen Temperature Yesterday

Maximum temperature yesterday: 69 °F (at 5:00 PM)
Minimum temperature yesterday: 55 °F (at 6:00 AM)
Average temperature yesterday: 60 °F

High & Low Weather Summary for the Past Weeks

 TemperatureHumidityPressure
High88 °F (Jun 24, 4:00 PM)99% (Jun 16, 11:00 PM)30.29 "Hg (Jun 16, 11:00 PM)
Low49 °F (Jun 18, 5:00 AM)29% (Jun 24, 4:00 PM)29.44 "Hg (Jun 16, 5:00 PM)
Average63 °F74%29.95 "Hg
* Reported Jun 13 9:00 PM — Jun 28 9:00 PM, Plzen, Weather by CustomWeather, © 2016

Note: Actual official high and low records may vary slightly from our data, if they occured in-between our weather recording intervals... More about our weather records

Advertising

Plzen Weather History for the Previous 24 Hours

Scroll right to see more
 ConditionsComfort  
Time TempWeatherWind HumidityBarometerVisibility
9:00 PM
Tue, Jun 28
66 °FScattered clouds.1 mph66%29.98 "Hg43 mi
8:00 PM69 °FScattered clouds.1 mph55%29.97 "Hg47 mi
7:00 PM72 °FScattered clouds.N/A48%29.96 "Hg47 mi
6:00 PM72 °FPartly sunny.3 mph53%29.97 "Hg47 mi
5:00 PM72 °FPartly sunny.3 mph50%29.98 "Hg47 mi
4:00 PM70 °FPartly sunny.5 mph56%29.99 "Hg47 mi
3:00 PM70 °FPartly sunny.5 mph57%30.01 "Hg47 mi
2:00 PM71 °FPartly sunny.5 mph55%30.02 "Hg47 mi
1:00 PM69 °FPartly sunny.5 mph59%30.04 "Hg47 mi
12:00 PM68 °FOvercast.6 mph56%30.05 "Hg47 mi
11:00 AM68 °FOvercast.5 mph62%30.05 "Hg47 mi
10:00 AM66 °FOvercast.3 mph64%30.06 "Hg40 mi
9:00 AM64 °FScattered clouds.3 mph71%30.07 "Hg34 mi
8:00 AM60 °FPassing clouds.N/A77%30.09 "Hg31 mi
7:00 AM58 °FCool.No wind83%30.10 "Hg12 mi
6:00 AM55 °FCool.1 mph88%30.11 "Hg12 mi
5:00 AM53 °FCool.2 mph90%30.11 "Hg12 mi
3:00 AM56 °FCool.1 mph78%30.11 "Hg12 mi
2:00 AM55 °FCool.N/A85%30.13 "Hg12 mi
1:00 AM56 °FCool.1 mph73%30.12 "Hg12 mi
12:00 AM56 °FCool.3 mph74%30.12 "Hg12 mi
11:00 PM
Mon, Jun 27
57 °FCool.3 mph70%30.11 "Hg12 mi
10:00 PM58 °FPassing clouds.3 mph65%30.10 "Hg47 mi
Weather by CustomWeather, © 2016

See weather overviewHow to use our weather pages